星链-5664 (STARLINK-5664 )

导读

STARLINK-5664是美国太空探索技术公司星链互联网卫星群组中的一颗卫星,于2023年1月26日8时发射入轨,属于星链项目扩容的一部分。星链计划旨在搭建全球卫星互联网,为全球多地提供高速低延迟网络服务,该卫星承担着完善星座覆盖密度、提升服务容量的任务。

基本信息
目录编号:
55360
目录名称:
STARLINK-5664
国际标识:
2023-013AF
轨道中心:
EARTH
卫星名称:
星链-5664
卫星全名:
星链-5664 (STARLINK-5664 )
卫星状态:
在轨 (已飞行1317 天)
发射日期:
2023-01-26 UTC
国别 :
美国 (US)
星等 :
--
轨道信息
数据来源 国际轨道数据
星历时间: 2026-09-04T03:06:34+0800
18小时前
查看轨道信息
半长轴: 6861.179km
偏心率: 0.0001313
轨道倾角: 43.005°
近地点辐角 279.922°
升交点赤经 35.560°
平近点角 80.149°
近地点: 482.141km
远地点: 483.943km
周期: 94.267分钟
每日圈数: 15.275827
详细信息
固有亮度:
5
最大亮度:
2.5
卫星平台:
Starlink v1.5
覆盖范围:
全球
运营商:
太空探索技术公司
运营商所在国:
美国
制造商(研发单位):
太空探索技术公司
制造商所在国:
美国
使用方式:
暂无
卫星简介
星链(Starlink)计划是由太空探索技术公司(SpaceX)提出的一个巨型低轨卫星互联网星座项目,计划在2019年至2024年间在太空搭建由约1.2万颗卫星组成的“星链”网络,其中1584颗将部署在地球上空550千米处的近地轨道,并从2020年开始工作。该卫星仍在工作。
2D轨道图
3D轨道图
轨道高度分析图
轨道倾角分析图
轨道综合分析图
查看轨道综合分析图